Chicago Lansing, IL

7:59 PM CDT on August 22, 2017 (GMT -0500)
Lansing Municipal

Weather History for KIGQ - October, 2012

Change the Weather History Date:

Thursday, October 18, 2012

  Actual Average (KGYY) Record (KGYY)
Temperature  
Mean Temperature 49 °F -  
Max Temperature 54 °F 57 °F 89 °F (1950)
Min Temperature 44 °F 39 °F 24 °F (1948)
Degree Days  
Heating Degree Days 16    
Moisture  
Dew Point 42 °F    
Average Humidity 78    
Maximum Humidity 93    
Minimum Humidity 50    
Precipitation  
Precipitation 0.21 in - - ()
Sea Level Pressure  
Sea Level Pressure 29.45 in    
Wind  
Wind Speed 13 mph (SW)    
Max Wind Speed 26 mph    
Max Gust Speed 34 mph    
Visibility 10 miles    
Events Rain    
Averages and records for this station are not official NWS values.
T = Trace of Precipitation, MM = Missing Value Source: NWS Daily Summary

Daily Weather History Graph

Daily Weather History Graph

Search for Another Location

Airport or City:

Trip Planner

Search our weather history database for the weather conditions in past years. The results will help you decide how hot, cold, wet, or windy it might be!

Date:

Astronomy

Oct. 18, 2012 Rise Set
Actual Time 7:06 AM CDT 6:03 PM CDT
Civil Twilight 6:37 AM CDT 6:31 PM CDT
Nautical Twilight 6:05 AM CDT 7:03 PM CDT
Astronomical Twilight 5:33 AM CDT 7:35 PM CDT
Moon 10:50 AM CDT (10/18) 8:34 PM CDT (10/18)
Length of Visible Light 11h 53m
Length of Day
10h 57m
Waxing Crescent, 14% of the Moon is Illuminated
Oct 18
Waxing Crescent
Oct 21
First Quarter
Oct 29
Full
Nov 6
Last Quarter
Nov 13
New

Hourly Weather History & Observations

Time (CDT) Temp. Windchill Dew Point Humidity Pressure Visibility Wind Dir Wind Speed Gust Speed Precip Events Conditions
12:15 AM 54.1 °F - 50.9 °F 89% 29.38 in 10.0 mi West 11.5 mph 18.4 mph N/A Rain Light Rain
12:35 AM 54.0 °F - 51.1 °F 90% 29.36 in 10.0 mi West 8.1 mph - N/A   Overcast
12:55 AM 53.6 °F - 50.7 °F 90% 29.38 in 10.0 mi WSW 10.4 mph - N/A   Overcast
1:15 AM 53.2 °F - 50.0 °F 89% 29.38 in 10.0 mi WSW 9.2 mph - N/A   Overcast
1:35 AM 52.7 °F - 49.5 °F 89% 29.36 in 10.0 mi WSW 8.1 mph - N/A   Overcast
1:55 AM 52.7 °F - 49.5 °F 89% 29.36 in 10.0 mi WSW 9.2 mph - N/A   Overcast
2:15 AM 52.7 °F - 49.3 °F 88% 29.36 in 10.0 mi WSW 11.5 mph - N/A   Overcast
2:35 AM 52.7 °F - 48.7 °F 86% 29.36 in 10.0 mi WSW 12.7 mph - N/A   Overcast
2:55 AM 51.8 °F - 49.1 °F 90% 29.36 in 7.0 mi WSW 13.8 mph 18.4 mph 0.03 in Rain Rain
3:15 AM 51.1 °F - 49.1 °F 93% 29.36 in 5.0 mi WSW 12.7 mph - 0.08 in Rain Rain
3:35 AM 50.7 °F - 47.3 °F 88% 29.35 in 10.0 mi WSW 13.8 mph - 0.10 in   Overcast
3:55 AM 49.8 °F - 45.7 °F 86% 29.36 in 10.0 mi WSW 16.1 mph 25.3 mph 0.10 in   Mostly Cloudy
4:15 AM 49.1 °F - 43.5 °F 81% 29.36 in 10.0 mi WSW 11.5 mph 19.6 mph N/A   Scattered Clouds
4:35 AM 48.9 °F - 43.2 °F 80% 29.37 in 10.0 mi WSW 12.7 mph 19.6 mph N/A   Clear
4:55 AM 48.2 °F - 43.2 °F 83% 29.37 in 10.0 mi WSW 10.4 mph - N/A   Clear
5:15 AM 47.5 °F - 43.0 °F 84% 29.38 in 10.0 mi SW 12.7 mph 16.1 mph N/A   Mostly Cloudy
5:35 AM 47.3 °F - 42.8 °F 84% 29.38 in 10.0 mi SW 13.8 mph - N/A   Overcast
5:55 AM 47.3 °F - 42.8 °F 84% 29.38 in 10.0 mi SW 12.7 mph - N/A   Overcast
6:15 AM 46.9 °F - 42.1 °F 83% 29.39 in 10.0 mi SW 13.8 mph 18.4 mph N/A   Mostly Cloudy
6:35 AM 46.4 °F 40.7 °F 41.7 °F 84% 29.40 in 10.0 mi WSW 12.7 mph - N/A   Overcast
6:55 AM 45.7 °F 39.5 °F 40.8 °F 83% 29.40 in 10.0 mi WSW 13.8 mph 19.6 mph N/A   Scattered Clouds
7:15 AM 45.1 °F 38.4 °F 39.7 °F 81% 29.41 in 10.0 mi WSW 15.0 mph 20.7 mph N/A   Clear
7:35 AM 44.6 °F 39.2 °F 39.2 °F 81% 29.41 in 10.0 mi WNW 10.4 mph - N/A   Clear
7:55 AM 44.6 °F 39.2 °F 39.2 °F 81% 29.42 in 10.0 mi SW 10.4 mph - N/A   Clear
8:15 AM 45.5 °F 39.6 °F 39.4 °F 79% 29.42 in 7.0 mi SW 12.7 mph - N/A   Clear
8:35 AM 46.2 °F 40.5 °F 39.2 °F 76% 29.43 in 10.0 mi SW 12.7 mph - N/A   Clear
8:55 AM 47.3 °F - 39.4 °F 74% 29.43 in 10.0 mi SW 12.7 mph - N/A   Clear
9:15 AM 48.4 °F - 39.6 °F 72% 29.43 in 10.0 mi SW 16.1 mph 21.9 mph N/A   Clear
9:35 AM 50.4 °F - 40.3 °F 68% 29.43 in 10.0 mi SW 16.1 mph 21.9 mph N/A   Mostly Cloudy
9:55 AM 50.4 °F - 40.1 °F 68% 29.43 in 10.0 mi SW 15.0 mph 23.0 mph N/A   Overcast
10:15 AM 52.0 °F - 39.4 °F 62% 29.43 in 10.0 mi WSW 21.9 mph 26.5 mph N/A   Scattered Clouds
10:35 AM 52.7 °F - 39.7 °F 61% 29.44 in 10.0 mi WSW 18.4 mph 24.2 mph N/A   Clear
10:55 AM 53.6 °F - 40.3 °F 61% 29.44 in 10.0 mi SW 15.0 mph 25.3 mph N/A   Clear
11:15 AM 53.2 °F - 39.4 °F 59% 29.45 in 10.0 mi SW 19.6 mph 26.5 mph N/A   Mostly Cloudy
11:35 AM 53.1 °F - 37.8 °F 56% 29.45 in 10.0 mi SW 17.3 mph 27.6 mph N/A   Overcast
11:55 AM 53.4 °F - 37.4 °F 55% 29.45 in 10.0 mi SW 11.5 mph - N/A   Overcast
12:15 PM 53.8 °F - 35.8 °F 51% 29.45 in 10.0 mi SW 16.1 mph 25.3 mph N/A   Overcast
12:35 PM 54.0 °F - 37.4 °F 54% 29.45 in 10.0 mi SSW 16.1 mph 21.9 mph N/A   Overcast
12:55 PM 53.6 °F - 37.4 °F 54% 29.45 in 10.0 mi SSW 17.3 mph 21.9 mph N/A   Overcast
1:15 PM 53.6 °F - 38.1 °F 56% 29.45 in 10.0 mi SSW 19.6 mph 27.6 mph N/A   Overcast
1:35 PM 53.6 °F - 37.4 °F 54% 29.45 in 10.0 mi SSW 19.6 mph 24.2 mph N/A   Overcast
1:55 PM 53.6 °F - 36.3 °F 52% 29.45 in 10.0 mi WSW 15.0 mph 26.5 mph N/A   Overcast
2:15 PM 53.6 °F - 37.4 °F 54% 29.45 in 10.0 mi SW 19.6 mph 25.3 mph N/A   Overcast
2:35 PM 52.7 °F - 34.5 °F 50% 29.46 in 10.0 mi SW 23.0 mph 31.1 mph N/A   Overcast
2:55 PM 52.3 °F - 35.1 °F 52% 29.46 in 10.0 mi SW 17.3 mph 25.3 mph N/A   Overcast
3:15 PM 52.0 °F - 36.0 °F 54% 29.48 in 10.0 mi WSW 26.5 mph 34.5 mph N/A Rain Rain
3:35 PM 48.6 °F - 37.9 °F 67% 29.50 in 10.0 mi WSW 19.6 mph 34.5 mph N/A   Drizzle
3:55 PM 46.8 °F - 40.1 °F 78% 29.51 in 10.0 mi WSW 16.1 mph 25.3 mph N/A Rain Rain
4:15 PM 46.4 °F 40.1 °F 41.0 °F 81% 29.52 in 10.0 mi SW 15.0 mph 19.6 mph N/A Rain Light Rain
4:35 PM 46.6 °F - 41.2 °F 81% 29.52 in 10.0 mi SSW 13.8 mph 21.9 mph N/A Rain Light Rain
4:55 PM 46.9 °F - 40.3 °F 78% 29.53 in 10.0 mi SSW 16.1 mph 19.6 mph N/A   Overcast
5:15 PM 46.4 °F 39.0 °F 39.9 °F 78% 29.54 in 10.0 mi SW 19.6 mph 26.5 mph 0.01 in Rain Rain
5:35 PM 44.8 °F 38.7 °F 41.4 °F 88% 29.56 in 10.0 mi SW 12.7 mph 20.7 mph 0.02 in Rain Light Rain
5:55 PM 44.6 °F 38.4 °F 40.8 °F 87% 29.56 in 10.0 mi SW 12.7 mph - 0.02 in Rain Light Rain
6:15 PM 44.6 °F 38.8 °F 41.5 °F 89% 29.56 in 10.0 mi SSW 11.5 mph - 0.01 in   Drizzle
6:35 PM 44.6 °F 40.2 °F 41.9 °F 90% 29.56 in 10.0 mi South 8.1 mph - 0.01 in Rain Light Rain
6:55 PM 44.2 °F 39.2 °F 42.1 °F 92% 29.56 in 10.0 mi South 9.2 mph - 0.01 in Rain Light Rain
7:15 PM 44.6 °F 38.8 °F 41.9 °F 90% 29.56 in 10.0 mi South 11.5 mph - 0.01 in Rain Light Rain
7:35 PM 44.6 °F 38.8 °F 41.9 °F 90% 29.55 in 10.0 mi South 11.5 mph - 0.01 in Rain Rain
7:55 PM 44.6 °F 39.2 °F 41.9 °F 90% 29.55 in 10.0 mi South 10.4 mph - 0.01 in Rain Light Rain
8:15 PM 44.6 °F 38.8 °F 41.9 °F 90% 29.55 in 10.0 mi South 11.5 mph - N/A Rain Light Rain
8:35 PM 44.8 °F 39.0 °F 41.9 °F 90% 29.55 in 10.0 mi South 11.5 mph - 0.01 in Rain Light Rain
8:55 PM 44.6 °F 38.4 °F 41.9 °F 90% 29.55 in 10.0 mi South 12.7 mph - 0.02 in Rain Light Rain
9:15 PM 44.6 °F 37.8 °F 41.5 °F 89% 29.55 in 10.0 mi South 15.0 mph 19.6 mph 0.01 in Rain Light Rain
9:35 PM 44.2 °F 37.6 °F 41.5 °F 90% 29.54 in 10.0 mi South 13.8 mph 19.6 mph 0.02 in Rain Light Rain
9:55 PM 44.2 °F 38.4 °F 41.5 °F 90% 29.54 in 10.0 mi South 11.5 mph 18.4 mph 0.02 in Rain Rain
10:15 PM 44.6 °F 38.8 °F 41.0 °F 87% 29.53 in 10.0 mi South 11.5 mph - N/A   Drizzle
10:35 PM 44.1 °F 37.7 °F 41.5 °F 91% 29.53 in 10.0 mi South 12.7 mph - N/A   Light Drizzle
10:55 PM 44.1 °F 37.7 °F 41.5 °F 91% 29.52 in 10.0 mi South 12.7 mph - N/A   Drizzle